Tracking 23610 objects as of 21-Sep-2021
HD Live streaming from Space Station
objects crossing your sky now

INSAT 3A

Track INSAT 3A now!
INSAT 3A is classified as:


NORAD ID: 27714
Int'l Code: 2003-013A
Perigee: 35,895.0 km
Apogee: 35,951.0 km
Inclination: 4.6 °
Period: 1,442.7 minutes
Semi major axis: 42293 km
RCS: 22.0529 m2 (large)
Launch date: April 9, 2003
Source: India (IND)
Launch site: FRENCH GUIANA (FRGUI)

12 C-band, 6 extended C-band, 6 Ku-band for voice, video and data transmission to West Asia, East Asia, India; augment present INSAT capacity for communication and meteorological services.
aabbcc
Your satellite tracking list
Your tracking list is empty




NASA's NSSDC Master Catalog

Two Line Element Set (TLE):
1 27714U 03013A   21263.23035755 -.00000160  00000-0  00000-0 0  9990
2 27714   4.6328  77.8711 0006617 292.6362  64.0027  0.99812535 67449
Source of the keplerian elements: AFSPC